"Pseudo-MPEC" for C14N3W5

Created 2025 Jul 7 21:35:02 UT using Find_Orb

Click here for an explanation of pseudo-MPECs

 
 Astrometry: 
     C14N3W5* C2025 06 18.28384815 28 26.594-11 02 44.45   ~6I7Z       VNEOCPV00
     C14N3W5  C2025 06 18.28943315 28 27.325-11 03 04.68   ~6I7Z 22.56GVNEOCPV00
     C14N3W5  C2025 06 18.29502015 28 28.038-11 03 24.12   ~6I7Z 22.43GVNEOCPV00
     C14N3W5  C2025 06 18.30060815 28 28.765-11 03 43.38   ~6I7Z 22.34GVNEOCPV00
     C14N3W5 mC2025 06 19.22236215 30 39.395-11 57 13.03   ~6J65 22.83GVNEOCPV00
     C14N3W5 mC2025 06 19.22767515 30 40.046-11 57 31.64   ~6J65 22.73GVNEOCPV00
     C14N3W5 mC2025 06 19.23064015 30 40.417-11 57 41.44   ~6J65 22.68GVNEOCPV00

Station data:
(V00) Kitt Peak-Bok  (N31.963125 W111.600190)  US/Arizona.  Observers T. A.
   Pruyne, B. M. Africano, E. J. Christensen, G. A. Farneth, D. C. Fuls, A.
   R. Gibbs, A. D. Grauer, H. Gröller, J. A. Johnson, R. A. Kowalski, S. M.
   Larson, G. J. Leonard, D. Rankin, R. L. Seaman, F. C. Shelly, K. W.
   Wierzchoś. 2.25-m reflector + 4x4K mosaic CCD.

Orbital elements:  C14N3W5
   Perihelion 2025 Jun 11.23276 +/- 28.8 TT =  5:35:10 (JD 2460837.73276)
Epoch 2025 Jun 19.0 TT = JDT 2460845.5   Earth MOID: 0.2048   Ju: 0.8275
M   1.69321946 +/- 19               Ma: 0.0854                   AutoNEOCP
n   0.21799487 +/- 0.179            Peri.  164.60315 +/- 34
a   2.73425191 +/- 1.5              Node    89.48220 +/- 1.8
e   0.5553956 +/- 0.161             Incl.    9.60505 +/- 2.3
P   4.52124                H 24.30  G  0.15   U 11.6  SR
q 1.21566036 +/- 0.158    Q 4.25284346 +/- 2.33           (J2000 ecliptic)
From 7 observations 2025 June 18-19 (22.7 hr); mean residual 0".29
Residuals in arcseconds: 
250618 V00  .32-  .67+    250618 V00  .27+  .19-    250619 V00  .28-  .29+    
250618 V00  .01+  .20-    250619 V00  .39+  .07-    
250618 V00  .05+  .28-    250619 V00  .11-  .21-    

Ephemerides (geocentric):
Date (UTC) HH   RA             Dec           delta  r     elong  mag " sig PA
---- --------  ------------   ------------  ------ ------ -----  --- --------
2025 07 07 22  16 24 09.586   -28 00 52.87  .28381 1.2543 142.7 23.3 181'  38
2025 07 07 23  16 24 17.719   -28 02 35.73  .28397 1.2544 142.7 23.3 182'  38
2025 07 08 00  16 24 25.854   -28 04 18.45  .28413 1.2545 142.7 23.3 182'  38
2025 07 08 01  16 24 33.993   -28 06 01.02  .28429 1.2546 142.7 23.3 183'  38
2025 07 08 02  16 24 42.134   -28 07 43.45  .28445 1.2547 142.7 23.3 183'  38
2025 07 08 03  16 24 50.278   -28 09 25.73  .28461 1.2548 142.7 23.3 184'  38
2025 07 08 04  16 24 58.425   -28 11 07.87  .28477 1.2550 142.7 23.3 185'  38
2025 07 08 05  16 25 06.575   -28 12 49.86  .28494 1.2551 142.7 23.3 185'  38
2025 07 08 06  16 25 14.728   -28 14 31.71  .28510 1.2552 142.6 23.3 186'  38
2025 07 08 07  16 25 22.883   -28 16 13.41  .28526 1.2553 142.6 23.4 186'  38
2025 07 08 08  16 25 31.041   -28 17 54.97  .28542 1.2554 142.6 23.4 187'  38
2025 07 08 09  16 25 39.202   -28 19 36.39  .28558 1.2556 142.6 23.4 187'  38
2025 07 08 10  16 25 47.365   -28 21 17.66  .28575 1.2557 142.6 23.4 188'  38
2025 07 08 11  16 25 55.532   -28 22 58.78  .28591 1.2558 142.6 23.4 188'  38
2025 07 08 12  16 26 03.701   -28 24 39.76  .28607 1.2559 142.6 23.4 189'  38
2025 07 08 13  16 26 11.872   -28 26 20.60  .28624 1.2560 142.6 23.4 190'  38
2025 07 08 14  16 26 20.047   -28 28 01.29  .28640 1.2562 142.6 23.4 190'  38
2025 07 08 15  16 26 28.224   -28 29 41.83  .28656 1.2563 142.6 23.4 191'  38
2025 07 08 16  16 26 36.404   -28 31 22.23  .28673 1.2564 142.6 23.4 191'  38
2025 07 08 17  16 26 44.586   -28 33 02.49  .28689 1.2565 142.5 23.4 192'  38
2025 07 08 18  16 26 52.772   -28 34 42.59  .28706 1.2566 142.5 23.4 192'  38
2025 07 08 19  16 27 00.959   -28 36 22.56  .28722 1.2568 142.5 23.4 193'  38
2025 07 08 20  16 27 09.150   -28 38 02.38  .28739 1.2569 142.5 23.4 193'  38
2025 07 08 21  16 27 17.343   -28 39 42.05  .28755 1.2570 142.5 23.4 194'  38
2025 07 08 22  16 27 25.538   -28 41 21.57  .28772 1.2571 142.5 23.4 194'  38
2025 07 08 23  16 27 33.737   -28 43 00.96  .28789 1.2572 142.5 23.4 195'  38
2025 07 09 00  16 27 41.937   -28 44 40.19  .28805 1.2574 142.5 23.4 196'  38
2025 07 09 01  16 27 50.141   -28 46 19.28  .28822 1.2575 142.5 23.4 196'  38
2025 07 09 02  16 27 58.347   -28 47 58.22  .28839 1.2576 142.5 23.4 197'  38
2025 07 09 03  16 28 06.555   -28 49 37.02  .28855 1.2577 142.5 23.4 197'  38
2025 07 09 04  16 28 14.766   -28 51 15.67  .28872 1.2579 142.5 23.4 198'  38
2025 07 09 05  16 28 22.980   -28 52 54.18  .28889 1.2580 142.4 23.4 198'  38
2025 07 09 06  16 28 31.196   -28 54 32.54  .28906 1.2581 142.4 23.4 199'  38
2025 07 09 07  16 28 39.414   -28 56 10.75  .28923 1.2582 142.4 23.4 199'  38
2025 07 09 08  16 28 47.636   -28 57 48.82  .28939 1.2584 142.4 23.4 200'  38
2025 07 09 09  16 28 55.859   -28 59 26.74  .28956 1.2585 142.4 23.4 200'  38
2025 07 09 10  16 29 04.085   -29 01 04.52  .28973 1.2586 142.4 23.4 201'  38
2025 07 09 11  16 29 12.314   -29 02 42.15  .28990 1.2587 142.4 23.4 202'  39
2025 07 09 12  16 29 20.545   -29 04 19.63  .29007 1.2588 142.4 23.4 202'  39
2025 07 09 13  16 29 28.778   -29 05 56.97  .29024 1.2590 142.4 23.4 203'  39
2025 07 09 14  16 29 37.014   -29 07 34.16  .29041 1.2591 142.4 23.4 203'  39
2025 07 09 15  16 29 45.252   -29 09 11.20  .29058 1.2592 142.4 23.4 204'  39
2025 07 09 16  16 29 53.492   -29 10 48.10  .29075 1.2593 142.3 23.4 204'  39
2025 07 09 17  16 30 01.735   -29 12 24.85  .29092 1.2595 142.3 23.4 205'  39
2025 07 09 18  16 30 09.981   -29 14 01.46  .29109 1.2596 142.3 23.4 205'  39
2025 07 09 19  16 30 18.229   -29 15 37.92  .29126 1.2597 142.3 23.4 206'  39
2025 07 09 20  16 30 26.479   -29 17 14.23  .29144 1.2598 142.3 23.4 206'  39
2025 07 09 21  16 30 34.731   -29 18 50.39  .29161 1.2600 142.3 23.4 207'  39